Meteo pe oră la

Astăzi, 26 Iulie, Luni

Timp Temperatura Precipitaţii Vânt Presiune Umiditate
00:00 +26°C° 0 mm 1 m/s 757 mmHg 65%
01:00 +26°C° 0 mm 1 m/s 757 mmHg 66%
02:00 +25°C° 0 mm 1 m/s 756 mmHg 68%
03:00 +25°C° 0 mm 1 m/s 757 mmHg 69%
04:00 +25°C° 0 mm 1 m/s 757 mmHg 69%
05:00 +25°C° 0 mm 1 m/s 757 mmHg 70%
06:00 +26°C° 0 mm 1 m/s 758 mmHg 65%
07:00 +28°C° 0 mm 1 m/s 758 mmHg 60%
08:00 +29°C° 0 mm 2 m/s 759 mmHg 55%
09:00 +31°C° 0 mm 2 m/s 758 mmHg 49%
10:00 +34°C° 0 mm 2 m/s 758 mmHg 44%
11:00 +36°C° 0 mm 2 m/s 758 mmHg 39%
12:00 +37°C° 0 mm 3 m/s 757 mmHg 37%
13:00 +37°C° 0 mm 3 m/s 756 mmHg 35%
14:00 +38°C° 0 mm 3 m/s 756 mmHg 34%
15:00 +36°C° 0 mm 2 m/s 756 mmHg 37%
16:00 +35°C° 0 mm 2 m/s 755 mmHg 41%
17:00 +33°C° 0 mm 1 m/s 755 mmHg 44%
18:00 +32°C° 0 mm 1 m/s 756 mmHg 47%
19:00 +30°C° 0 mm 1 m/s 756 mmHg 51%
20:00 +29°C° 0 mm 1 m/s 757 mmHg 54%
21:00 +28°C° 0 mm 1 m/s 757 mmHg 57%
22:00 +27°C° 0 mm 1 m/s 757 mmHg 61%
23:00 +27°C° 0 mm 1 m/s 758 mmHg 65%

Mâine, 27 Iulie, Marţi

Timp Temperatura Precipitaţii Vânt Presiune Umiditate
00:00 +26°C° 0 mm 1 m/s 757 mmHg 66%
01:00 +26°C° 0 mm 1 m/s 757 mmHg 67%
02:00 +26°C° 0 mm 1 m/s 756 mmHg 69%
03:00 +25°C° 0 mm 1 m/s 756 mmHg 70%
04:00 +25°C° 0 mm 1 m/s 756 mmHg 71%
05:00 +25°C° 0 mm 1 m/s 757 mmHg 72%
06:00 +26°C° 0 mm 1 m/s 757 mmHg 66%
07:00 +28°C° 0 mm 1 m/s 758 mmHg 60%
08:00 +30°C° 0 mm 1 m/s 758 mmHg 54%
09:00 +32°C° 0 mm 2 m/s 758 mmHg 49%
10:00 +35°C° 0 mm 2 m/s 758 mmHg 44%
11:00 +37°C° 0 mm 2 m/s 758 mmHg 39%
12:00 +37°C° 0 mm 3 m/s 757 mmHg 37%
13:00 +38°C° 0 mm 3 m/s 756 mmHg 36%
14:00 +38°C° 0 mm 3 m/s 756 mmHg 34%
15:00 +36°C° 0 mm 2 m/s 755 mmHg 39%
16:00 +34°C° 0 mm 1 m/s 755 mmHg 44%
17:00 +32°C° 0 mm 1 m/s 755 mmHg 49%
18:00 +31°C° 0 mm 1 m/s 755 mmHg 52%
19:00 +30°C° 0 mm 1 m/s 756 mmHg 55%
20:00 +29°C° 0 mm 2 m/s 757 mmHg 58%
21:00 +28°C° 0 mm 2 m/s 757 mmHg 62%
22:00 +28°C° 0 mm 2 m/s 757 mmHg 65%
23:00 +27°C° 0 mm 2 m/s 757 mmHg 69%

Poimâine, 28 Iulie, Miercuri

Timp Temperatura Precipitaţii Vânt Presiune Umiditate
00:00 +27°C° 0 mm 2 m/s 757 mmHg 69%
01:00 +27°C° 0 mm 1 m/s 756 mmHg 70%
02:00 +27°C° 0 mm 1 m/s 756 mmHg 70%
03:00 +27°C° 0 mm 1 m/s 756 mmHg 71%
04:00 +25°C° 0 mm 0 m/s 756 mmHg 71%
05:00 +25°C° 0 mm 0 m/s 756 mmHg 72%
06:00 +25°C° 0 mm 0 m/s 757 mmHg 71%
07:00 +28°C° 0 mm 1 m/s 758 mmHg 69%
08:00 +29°C° 0 mm 1 m/s 758 mmHg 67%
09:00 +30°C° 0 mm 1 m/s 758 mmHg 63%
10:00 +31°C° 0 mm 1 m/s 758 mmHg 59%
11:00 +32°C° 0 mm 1 m/s 758 mmHg 54%
12:00 +33°C° 0 mm 1 m/s 758 mmHg 52%
13:00 +35°C° 0 mm 2 m/s 757 mmHg 49%
14:00 +35°C° 0 mm 2 m/s 756 mmHg 46%
15:00 +35°C° 0 mm 2 m/s 756 mmHg 49%
16:00 +34°C° 0 mm 2 m/s 756 mmHg 52%
17:00 +33°C° 0 mm 1 m/s 756 mmHg 54%
18:00 +31°C° 0 mm 1 m/s 756 mmHg 60%
19:00 +30°C° 0 mm 1 m/s 756 mmHg 65%
20:00 +28°C° 0 mm 1 m/s 757 mmHg 70%
21:00 +27°C° 0 mm 1 m/s 757 mmHg 73%
22:00 +27°C° 0 mm 1 m/s 757 mmHg 75%
23:00 +26°C° 0 mm 1 m/s 758 mmHg 78%

29 Iulie, Joi

Timp Temperatura Precipitaţii Vânt Presiune Umiditate
00:00 +26°C° 0 mm 1 m/s 757 mmHg 80%
01:00 +26°C° 0 mm 1 m/s 757 mmHg 81%
02:00 +25°C° 0 mm 1 m/s 757 mmHg 83%
03:00 +25°C° 0 mm 1 m/s 757 mmHg 84%
04:00 +25°C° 0 mm 1 m/s 757 mmHg 85%
05:00 +25°C° 0 mm 1 m/s 757 mmHg 86%
06:00 +26°C° 0 mm 1 m/s 758 mmHg 80%
07:00 +27°C° 0 mm 1 m/s 758 mmHg 74%
08:00 +29°C° 0 mm 1 m/s 759 mmHg 67%
09:00 +29°C° 0 mm 1 m/s 759 mmHg 65%
10:00 +30°C° 0 mm 1 m/s 759 mmHg 63%
11:00 +31°C° 0 mm 1 m/s 759 mmHg 60%
12:00 +31°C° 0 mm 1 m/s 758 mmHg 58%
13:00 +32°C° 0 mm 1 m/s 758 mmHg 55%
14:00 +34°C° 0 mm 2 m/s 757 mmHg 52%
15:00 +32°C° 0 mm 2 m/s 757 mmHg 55%
16:00 +31°C° 0 mm 2 m/s 757 mmHg 58%
17:00 +31°C° 0 mm 2 m/s 757 mmHg 61%
18:00 +29°C° 0 mm 2 m/s 757 mmHg 66%
19:00 +28°C° 0 mm 1 m/s 757 mmHg 72%
20:00 +27°C° 0 mm 1 m/s 758 mmHg 77%
21:00 +26°C° 0 mm 1 m/s 758 mmHg 79%
22:00 +26°C° 0 mm 1 m/s 758 mmHg 81%
23:00 +26°C° 0 mm 1 m/s 759 mmHg 84%

30 Iulie, Vineri

Timp Temperatura Precipitaţii Vânt Presiune Umiditate
00:00 +25°C° 0 mm 1 m/s 758 mmHg 85%
01:00 +25°C° 0 mm 1 m/s 758 mmHg 87%
02:00 +25°C° 0 mm 1 m/s 758 mmHg 88%
03:00 +25°C° 0 mm 1 m/s 758 mmHg 89%
04:00 +25°C° 0 mm 1 m/s 758 mmHg 89%
05:00 +24°C° 0 mm 1 m/s 758 mmHg 90%
06:00 +26°C° 0 mm 1 m/s 759 mmHg 82%
07:00 +28°C° 0 mm 2 m/s 759 mmHg 74%
08:00 +29°C° 0 mm 2 m/s 760 mmHg 67%
09:00 +31°C° 0 mm 2 m/s 760 mmHg 60%
10:00 +34°C° 0 mm 2 m/s 759 mmHg 53%
11:00 +36°C° 0 mm 2 m/s 759 mmHg 46%
12:00 +36°C° 0.1 mm 2 m/s 758 mmHg 45%
13:00 +36°C° 0.1 mm 2 m/s 757 mmHg 44%
14:00 +37°C° 0.1 mm 2 m/s 756 mmHg 43%
15:00 +35°C° 0.2 mm 2 m/s 756 mmHg 52%
16:00 +32°C° 0.2 mm 2 m/s 756 mmHg 61%
17:00 +30°C° 0.2 mm 1 m/s 756 mmHg 69%
18:00 +29°C° 0.2 mm 1 m/s 757 mmHg 76%
19:00 +27°C° 0.2 mm 1 m/s 758 mmHg 83%
20:00 +26°C° 0.2 mm 1 m/s 758 mmHg 89%
21:00 +25°C° 0.4 mm 1 m/s 759 mmHg 91%
22:00 +25°C° 0.4 mm 1 m/s 759 mmHg 92%
23:00 +23°C° 0.4 mm 0 m/s 759 mmHg 94%

31 Iulie, Sâmbătă

Timp Temperatura Precipitaţii Vânt Presiune Umiditate
00:00 +22°C° 0.6 mm 0 m/s 759 mmHg 95%
01:00 +22°C° 0.6 mm 0 m/s 759 mmHg 95%
02:00 +22°C° 0.6 mm 0 m/s 759 mmHg 96%
03:00 +22°C° 0.1 mm 0 m/s 759 mmHg 96%
04:00 +22°C° 0.1 mm 0 m/s 759 mmHg 96%
05:00 +22°C° 0.1 mm 0 m/s 759 mmHg 96%
06:00 +25°C° 0 mm 1 m/s 760 mmHg 92%
07:00 +26°C° 0 mm 1 m/s 760 mmHg 88%
08:00 +27°C° 0 mm 1 m/s 761 mmHg 84%
09:00 +28°C° 0 mm 1 m/s 760 mmHg 80%
10:00 +29°C° 0 mm 1 m/s 760 mmHg 77%
11:00 +29°C° 0 mm 1 m/s 760 mmHg 73%
12:00 +29°C° 0.5 mm 2 m/s 760 mmHg 75%
13:00 +29°C° 0.5 mm 2 m/s 759 mmHg 78%
14:00 +28°C° 0.5 mm 2 m/s 758 mmHg 80%
15:00 +28°C° 0.1 mm 2 m/s 758 mmHg 82%
16:00 +27°C° 0.1 mm 2 m/s 758 mmHg 83%
17:00 +27°C° 0.1 mm 1 m/s 758 mmHg 85%
18:00 +26°C° 0 mm 1 m/s 758 mmHg 86%
19:00 +26°C° 0 mm 1 m/s 759 mmHg 88%
20:00 +26°C° 0 mm 1 m/s 760 mmHg 90%
21:00 +25°C° 0 mm 1 m/s 760 mmHg 90%
22:00 +25°C° 0 mm 1 m/s 760 mmHg 90%
23:00 +25°C° 0 mm 1 m/s 760 mmHg 90%
Arată mai mult

Formular de consimțământ

Meteoprog și furnizorii noștri de servicii pot stoca și accesa date personale, precum cookies, identificatori de dispozitiv sau alte tehnologii similare pe dispozitivul dumneavoastră și procesa astfel de date pentru a personaliza conținutul și reclamele, dar și pentru a oferi caracteristici de social media și pentru a analiza traficul.

  • Stocarea și/sau accesarea informațiilor pe dispozitivul dumneavoastră

    Cookies, identificatori de dispozitiv sau alte informații pot fi stocate sau accesate pe dispozitiv în scopurile indicate mai sus.

  • Reclame și conținut personalizat, evaluarea reclamelor și a conținutului, informații despre audiențe și dezvoltarea produselor

    Reclamele și conținutul pot fi personalizate pe baza unui profil. Pot fi adăugate date suplimentare pentru a personaliza mai bine reclamele și conținutul. Performanța reclamelor și conținutului poate fi măsurată. Pot fi obținute informații despre utilizatorii care au văzut reclamele și conținutul. Aceste date pot fi utilizate pentru a dezvolta sau îmbunătăți experiența utilizatorilor, sistemele și software-ul.

Dând clic pe ‘Sunt de acord’, permiteți utilizarea cookie-urilor menționate, a identificatorilor de dispozitiv, balizelor web sau altor tehnologii similare. Setările pot fi modificate din browser-ul dispozitivului dumneavoastră.

În anumite scopuri, interesele legitime pot prima asupra consimțământului. Puteți citi mai multe informații în acest sens în Politica privind Confidențialitatea Datelor și Cookie.